timestamp,surface_pressure_avg,surface_temp_avg,battery_voltage,lat,long
2021-08-06 00:09:01+00:00,302.0364,18.8,12.97,47.84626,-54.09684
2021-08-06 00:19:01+00:00,294.7597,18.8,12.73,47.84626,-54.09684
2021-08-06 00:29:01+00:00,292.4247,18.8,12.73,47.84626,-54.09684
2021-08-06 00:39:01+00:00,288.4064,18.8,12.73,47.84626,-54.09684
2021-08-06 00:49:01+00:00,278.8964,18.85,12.73,47.84626,-54.09684
2021-08-06 00:59:01+00:00,269.0764,18.86,12.73,47.84626,-54.09684
2021-08-06 01:09:01+00:00,264.8447,18.87,12.73,47.84626,-54.09684
2021-08-06 01:19:01+00:00,258.7048,18.87,12.73,47.84626,-54.09684
2021-08-06 01:29:01+00:00,252.3331,18.88,12.73,47.84626,-54.09684
2021-08-06 01:39:01+00:00,247.2098,18.89,12.73,47.84626,-54.09684
2021-08-06 01:49:01+00:00,241.7314,18.8,12.73,47.84626,-54.09684
2021-08-06 01:59:01+00:00,237.4531,18.8,12.73,47.84626,-54.09684
2021-08-06 02:09:01+00:00,236.7581,18.8,12.73,47.84626,-54.09684
2021-08-06 02:19:01+00:00,233.9948,18.8,12.73,47.84626,-54.09684
2021-08-06 02:29:01+00:00,227.2781,18.8,12.73,47.84626,-54.09684
2021-08-06 02:39:01+00:00,223.2131,18.8,12.73,47.84626,-54.09684
2021-08-06 02:49:01+00:00,220.5215,18.8,12.73,47.84626,-54.09684
2021-08-06 02:59:01+00:00,215.1614,18.8,12.73,47.84626,-54.09684
2021-08-06 03:09:01+00:00,210.3498,18.8,12.73,47.84626,-54.09684
2021-08-06 03:19:00+00:00,208.2281,18.84,12.73,47.84626,-54.09684
2021-08-06 03:29:00+00:00,208.0348,18.85,12.73,47.84626,-54.09684
2021-08-06 03:39:00+00:00,206.9298,18.8,12.73,47.84626,-54.09684
2021-08-06 03:49:00+00:00,205.8881,18.78,12.73,47.84626,-54.09684
2021-08-06 03:59:00+00:00,207.1915,18.7,12.73,47.84626,-54.09684
2021-08-06 04:09:00+00:00,207.4198,18.7,12.73,47.84626,-54.09684
2021-08-06 04:19:00+00:00,207.7448,18.76,12.73,47.84626,-54.09684
2021-08-06 04:29:00+00:00,210.1815,18.73,12.73,47.84626,-54.09684
2021-08-06 04:39:00+00:00,210.6381,18.7,12.73,47.84626,-54.09684
2021-08-06 04:49:00+00:00,210.2448,18.6,12.73,47.84626,-54.09684
2021-08-06 04:59:00+00:00,210.8014,18.67,12.73,47.84626,-54.09684
2021-08-06 05:09:00+00:00,208.1048,18.7,12.73,47.84626,-54.09684
2021-08-06 05:19:01+00:00,206.3364,18.7,12.73,47.84626,-54.09684
2021-08-06 05:29:01+00:00,210.8864,18.61,12.73,47.84626,-54.09684
2021-08-06 05:39:01+00:00,215.8881,18.63,12.73,47.84626,-54.09684
2021-08-06 05:49:01+00:00,217.0314,18.66,12.73,47.84626,-54.09684
2021-08-06 05:59:01+00:00,218.2981,18.69,12.73,47.84626,-54.09684
2021-08-06 06:09:01+00:00,223.1314,18.7,12.73,47.84626,-54.09684
2021-08-06 06:19:00+00:00,227.8681,18.68,12.73,47.84626,-54.09684
2021-08-06 06:29:00+00:00,231.0147,18.6,12.73,47.84626,-54.09684
2021-08-06 06:39:00+00:00,233.4197,18.6,12.73,47.84626,-54.09684
2021-08-06 06:49:00+00:00,237.5164,18.6,12.73,47.84626,-54.09684
2021-08-06 06:59:00+00:00,242.7931,18.6,12.73,47.84626,-54.09684
2021-08-06 07:09:00+00:00,245.5164,18.6,12.73,47.84626,-54.09684
2021-08-06 07:19:01+00:00,248.9114,18.6,12.65,47.84626,-54.09684
2021-08-06 07:29:01+00:00,254.2547,18.6,12.65,47.84626,-54.09684
2021-08-06 07:39:01+00:00,260.5414,18.5,12.65,47.84626,-54.09684
2021-08-06 07:49:01+00:00,264.7498,18.54,12.65,47.84626,-54.09684
2021-08-06 07:59:01+00:00,270.7381,18.6,12.65,47.84626,-54.09684
2021-08-06 08:09:01+00:00,277.3231,18.59,12.65,47.84626,-54.09684
2021-08-06 08:19:01+00:00,282.6864,18.55,12.65,47.84626,-54.09684
2021-08-06 08:29:01+00:00,283.9431,18.6,12.65,47.84626,-54.09684
2021-08-06 08:39:01+00:00,286.6448,18.6,12.65,47.84626,-54.09684
2021-08-06 08:49:01+00:00,292.0347,18.6,12.65,47.84626,-54.09684
2021-08-06 08:59:01+00:00,294.6947,18.6,12.65,47.84626,-54.09684
2021-08-06 09:09:01+00:00,294.7447,18.6,12.65,47.84626,-54.09684
2021-08-06 09:19:01+00:00,298.2014,18.59,12.65,47.84626,-54.09684
2021-08-06 09:29:01+00:00,300.7681,18.58,12.65,47.84626,-54.09684
2021-08-06 09:39:01+00:00,299.758,18.56,12.65,47.84626,-54.09684
2021-08-06 09:49:01+00:00,302.1996,18.55,12.65,47.84626,-54.09684
2021-08-06 09:59:01+00:00,306.7047,18.5,12.65,47.84626,-54.09684
2021-08-06 10:09:01+00:00,307.408,18.5,12.65,47.84626,-54.09684
2021-08-06 10:19:01+00:00,305.3647,18.5,12.65,47.84626,-54.09684
2021-08-06 10:29:01+00:00,305.423,18.6,12.65,47.84626,-54.09684
2021-08-06 10:39:01+00:00,306.908,18.6,12.65,47.84626,-54.09684
2021-08-06 10:49:01+00:00,304.133,18.6,12.65,47.84626,-54.09684
2021-08-06 10:59:01+00:00,301.293,18.63,12.65,47.84626,-54.09684
2021-08-06 11:09:01+00:00,301.6047,18.68,12.65,47.84626,-54.09684
2021-08-06 11:19:01+00:00,297.6714,18.7,12.97,47.84626,-54.09684
2021-08-06 11:29:01+00:00,293.5964,18.74,12.97,47.84626,-54.09684
2021-08-06 11:39:01+00:00,295.3813,18.79,12.97,47.84626,-54.09684
2021-08-06 11:49:01+00:00,295.438,18.8,12.97,47.84626,-54.09684
2021-08-06 11:59:01+00:00,288.1265,18.8,12.97,47.84626,-54.09684
2021-08-06 12:09:01+00:00,285.1564,18.89,12.97,47.84626,-54.09684
2021-08-06 12:19:00+00:00,286.2331,18.8,13.21,47.84626,-54.09684
2021-08-06 12:29:00+00:00,280.2931,18.8,13.21,47.84626,-54.09684
2021-08-06 12:39:00+00:00,272.2964,18.8,13.21,47.84626,-54.09684
2021-08-06 12:49:00+00:00,269.4664,18.84,13.21,47.84626,-54.09684
2021-08-06 12:59:00+00:00,266.3014,18.82,13.21,47.84626,-54.09684
2021-08-06 13:09:00+00:00,258.2697,18.8,13.21,47.84626,-54.09684
2021-08-06 13:19:01+00:00,251.9181,18.8,13.37,47.84626,-54.09684
2021-08-06 13:29:01+00:00,246.5698,18.8,13.37,47.84626,-54.09684
2021-08-06 13:39:01+00:00,240.5948,18.8,13.37,47.84626,-54.09684
2021-08-06 13:49:01+00:00,233.3065,18.8,13.37,47.84626,-54.09684
2021-08-06 13:59:01+00:00,228.2764,18.8,13.37,47.84626,-54.09684
2021-08-06 14:09:01+00:00,225.7381,18.8,13.37,47.84626,-54.09684
2021-08-06 14:19:01+00:00,223.9781,18.8,14.24,47.84626,-54.09684
2021-08-06 14:29:01+00:00,218.0248,18.83,14.24,47.84626,-54.09684
2021-08-06 14:39:01+00:00,209.9248,18.8,14.24,47.84626,-54.09684
2021-08-06 14:49:01+00:00,205.4315,18.8,14.24,47.84626,-54.09684
2021-08-06 14:59:01+00:00,206.7565,18.8,14.24,47.84626,-54.09684
2021-08-06 15:09:01+00:00,205.5815,18.8,14.24,47.84626,-54.09684
2021-08-06 15:19:01+00:00,200.0114,18.8,14.24,47.84626,-54.09684
2021-08-06 15:29:01+00:00,198.2098,18.7,14.24,47.84626,-54.09684
2021-08-06 15:39:01+00:00,199.6115,18.7,14.24,47.84626,-54.09684
2021-08-06 15:49:01+00:00,196.0364,18.7,14.24,47.84626,-54.09684
2021-08-06 15:59:01+00:00,192.8248,18.7,14.24,47.84626,-54.09684
2021-08-06 16:09:01+00:00,197.5448,18.7,14.24,47.84626,-54.09684
2021-08-06 16:19:01+00:00,199.7215,18.7,14.08,47.84626,-54.09684
2021-08-06 16:29:01+00:00,197.9365,18.7,14.08,47.84626,-54.09684
2021-08-06 16:39:01+00:00,199.0314,18.7,14.08,47.84626,-54.09684
2021-08-06 16:49:01+00:00,203.1398,18.5,14.08,47.84626,-54.09684
2021-08-06 16:59:01+00:00,204.9464,18.5,14.08,47.84626,-54.09684
2021-08-06 17:09:01+00:00,206.5564,18.59,14.08,47.84626,-54.09684
2021-08-06 17:19:01+00:00,210.3931,18.6,14.0,47.84626,-54.09684
2021-08-06 17:29:01+00:00,214.6364,18.51,14.0,47.84626,-54.09684
2021-08-06 17:39:01+00:00,215.8347,18.5,14.0,47.84626,-54.09684
2021-08-06 17:49:01+00:00,216.4114,18.52,14.0,47.84626,-54.09684
2021-08-06 17:59:01+00:00,219.8398,18.55,14.0,47.84626,-54.09684
2021-08-06 18:09:01+00:00,222.7581,18.5,14.0,47.84626,-54.09684
2021-08-06 18:19:01+00:00,225.2581,18.5,13.84,47.84626,-54.09684
2021-08-06 18:29:01+00:00,230.5864,18.5,13.84,47.84626,-54.09684
2021-08-06 18:39:01+00:00,237.4614,18.49,13.84,47.84626,-54.09684
2021-08-06 18:49:01+00:00,241.6098,18.39,13.84,47.84626,-54.09684
2021-08-06 18:59:01+00:00,243.8164,18.36,13.84,47.84626,-54.09684
2021-08-06 19:09:01+00:00,249.1914,18.39,13.84,47.84626,-54.09684
2021-08-06 19:19:01+00:00,256.1081,18.4,13.84,47.84626,-54.09684
2021-08-06 19:29:01+00:00,259.5831,18.4,13.84,47.84626,-54.09684
2021-08-06 19:39:01+00:00,263.7981,18.4,13.84,47.84626,-54.09684
2021-08-06 19:49:01+00:00,269.5881,18.4,13.84,47.84626,-54.09684
2021-08-06 19:59:01+00:00,276.0781,18.4,13.84,47.84626,-54.09684
2021-08-06 20:09:01+00:00,279.1714,18.38,13.84,47.84626,-54.09684
2021-08-06 20:19:01+00:00,285.8547,18.4,13.76,47.84626,-54.09684
2021-08-06 20:29:01+00:00,295.2548,18.4,13.76,47.84626,-54.09684
2021-08-06 20:39:01+00:00,304.6114,18.4,13.76,47.84626,-54.09684
2021-08-06 20:49:01+00:00,308.403,18.45,13.76,47.84626,-54.09684
2021-08-06 20:59:01+00:00,313.4197,18.5,13.76,47.84626,-54.09684
2021-08-06 21:09:01+00:00,318.8397,18.5,13.76,47.84626,-54.09684
2021-08-06 21:19:01+00:00,323.3963,18.5,13.6,47.84626,-54.09684
2021-08-06 21:29:01+00:00,324.9963,18.5,13.6,47.84626,-54.09684
2021-08-06 21:39:01+00:00,329.4496,18.5,13.6,47.84626,-54.09684
2021-08-06 21:49:01+00:00,332.8313,18.4,13.6,47.84626,-54.09684
2021-08-06 21:59:01+00:00,334.8830000000001,18.3,13.6,47.84626,-54.09684
2021-08-06 22:09:01+00:00,337.61300000000006,18.39,13.6,47.84626,-54.09684
2021-08-06 22:19:01+00:00,341.8496,18.43,13.29,47.84626,-54.09684
2021-08-06 22:29:01+00:00,342.9813,18.49,13.29,47.84626,-54.09684
2021-08-06 22:39:01+00:00,342.8363,18.5,13.29,47.84626,-54.09684
2021-08-06 22:49:01+00:00,346.7629,18.3,13.29,47.84626,-54.09684
2021-08-06 22:59:01+00:00,348.6797,18.3,13.29,47.84626,-54.09684
2021-08-06 23:09:01+00:00,345.8096,18.3,13.29,47.84626,-54.09684
2021-08-06 23:19:01+00:00,345.8563,18.3,12.89,47.84626,-54.09684
2021-08-06 23:29:01+00:00,349.0095,18.3,12.89,47.84626,-54.09684
2021-08-06 23:39:01+00:00,346.4312,18.3,12.89,47.84626,-54.09684
2021-08-06 23:49:01+00:00,342.3396,18.35,12.89,47.84626,-54.09684
2021-08-06 23:59:01+00:00,338.9596,18.34,12.89,47.84626,-54.09684
